カタログに戻る

STARLINK-35257

運用中通信VLEO
NORAD 66331·PAYLOAD·🇺🇸 United States

打ち上げ Nov 6, 2025 から Cape Canaveral Space Force Station

Loading…

次のパス (今後24時間)

TLE

最新Source: CelesTrak SupGP

元期: Sep 15, 2026, 03:59 UTC

1 66331C 25253N   26258.16645833 -.00019643  00000+0 -71163-3 0  2588
2 66331  43.0025 222.1560 0001202 268.4059 168.8159 15.27581183    12

AllMySatでSTARLINK-35257をリアルタイム追跡

Download on the App Store